AVA79 TNCC-SKBO

Flight info

Callsign AVA79
Flight time 1h 28m
Altitude 32000
Route EMAPA1K EMAPA DCT ALCOT UG431 STB DCT BUV/N0384F240 A567 VULAM VULAM4F
Aircraft A320/M-SDE3FGHIRWY/LB1

Departure

Time 2026-04-24 23:21
Airport Hato International Airport (TNCC)

Arrival

Time 2026-04-25 00:50
Airport El Dorado International Airport (SKBO)
Time Latitude Longitude Altitude Speed Heading
2026-04-24 22:51 12.18546 -68.95682 43 ft 0 kts 192°
2026-04-24 23:11 12.18549 -68.95681 16 ft 3 kts 192°
2026-04-24 23:11 12.18575 -68.95675 39 ft 4 kts 192°
2026-04-24 23:11 12.18597 -68.95670 41 ft 4 kts 195°
2026-04-24 23:12 12.18621 -68.95659 40 ft 4 kts 222°
2026-04-24 23:12 12.18636 -68.95638 42 ft 4 kts 257°
2026-04-24 23:12 12.18637 -68.95621 42 ft 0 kts 282°
2026-04-24 23:15 12.18638 -68.95624 42 ft 2 kts 282°
2026-04-24 23:15 12.18642 -68.95647 41 ft 5 kts 282°
2026-04-24 23:15 12.18650 -68.95682 41 ft 6 kts 282°
2026-04-24 23:16 12.18661 -68.95734 42 ft 9 kts 282°
2026-04-24 23:16 12.18675 -68.95802 43 ft 10 kts 282°
2026-04-24 23:16 12.18689 -68.95869 43 ft 9 kts 282°
2026-04-24 23:16 12.18706 -68.95947 43 ft 14 kts 282°
2026-04-24 23:17 12.18729 -68.96061 40 ft 18 kts 281°
2026-04-24 23:17 12.18756 -68.96198 43 ft 21 kts 282°
2026-04-24 23:17 12.18786 -68.96336 43 ft 20 kts 282°
2026-04-24 23:17 12.18817 -68.96483 42 ft 19 kts 281°
2026-04-24 23:18 12.18846 -68.96626 42 ft 22 kts 282°
2026-04-24 23:18 12.18881 -68.96787 41 ft 25 kts 282°
2026-04-24 23:18 12.18919 -68.96966 40 ft 26 kts 282°
2026-04-24 23:18 12.18953 -68.97130 40 ft 24 kts 282°
2026-04-24 23:19 12.18989 -68.97303 39 ft 26 kts 282°
2026-04-24 23:19 12.19026 -68.97482 40 ft 21 kts 281°
2026-04-24 23:19 12.19051 -68.97604 40 ft 12 kts 282°
2026-04-24 23:19 12.19098 -68.97643 40 ft 9 kts
2026-04-24 23:20 12.19158 -68.97630 39 ft 8 kts 12°
2026-04-24 23:20 12.19198 -68.97591 39 ft 10 kts 71°
2026-04-24 23:20 12.19213 -68.97515 39 ft 12 kts 91°
2026-04-24 23:20 12.19181 -68.97359 40 ft 50 kts 102°
2026-04-24 23:21 12.19061 -68.96786 41 ft 112 kts 102°
2026-04-24 23:21 12.18865 -68.95847 44 ft 160 kts 102°
2026-04-24 23:21 12.18624 -68.94689 514 ft 167 kts 99°
2026-04-24 23:21 12.18379 -68.93520 1231 ft 168 kts 100°
2026-04-24 23:22 12.18123 -68.92293 1628 ft 187 kts 100°
2026-04-24 23:22 12.17837 -68.90923 1931 ft 207 kts 101°
2026-04-24 23:22 12.17496 -68.89413 2258 ft 227 kts 107°
2026-04-24 23:22 12.16591 -68.88093 2921 ft 236 kts 143°
2026-04-24 23:23 12.14989 -68.87550 3346 ft 258 kts 180°
2026-04-24 23:23 12.13251 -68.88100 3912 ft 271 kts 216°
2026-04-24 23:23 12.11982 -68.89537 4676 ft 275 kts 238°
2026-04-24 23:23 12.11106 -68.91279 5483 ft 277 kts 246°
2026-04-24 23:24 12.10351 -68.93103 6277 ft 279 kts 248°
2026-04-24 23:24 12.09594 -68.94947 6978 ft 283 kts 247°
2026-04-24 23:24 12.08773 -68.96786 7703 ft 286 kts 245°
2026-04-24 23:24 12.07885 -68.98620 8440 ft 289 kts 244°
2026-04-24 23:25 12.06947 -69.00453 9145 ft 293 kts 243°
2026-04-24 23:25 12.05972 -69.02297 9839 ft 297 kts 243°
2026-04-24 23:25 12.04962 -69.04183 10224 ft 312 kts 243°
2026-04-24 23:25 12.03878 -69.06200 10375 ft 334 kts 243°
2026-04-24 23:26 12.02739 -69.08313 10821 ft 343 kts 242°
2026-04-24 23:26 12.01595 -69.10437 11416 ft 347 kts 243°
2026-04-24 23:26 12.00427 -69.12612 12060 ft 349 kts 243°
2026-04-24 23:26 11.99255 -69.14798 12693 ft 352 kts 242°
2026-04-24 23:27 11.98074 -69.17003 13308 ft 355 kts 243°
2026-04-24 23:27 11.96890 -69.19220 13919 ft 357 kts 243°
2026-04-24 23:27 11.95660 -69.21443 14483 ft 359 kts 238°
2026-04-24 23:27 11.94090 -69.23436 15016 ft 363 kts 225°
2026-04-24 23:28 11.92177 -69.25144 15543 ft 366 kts 221°
2026-04-24 23:28 11.90221 -69.26819 16094 ft 368 kts 221°
2026-04-24 23:28 11.88282 -69.28491 16602 ft 371 kts 220°
2026-04-24 23:28 11.86284 -69.30225 17137 ft 373 kts 220°
2026-04-24 23:29 11.84334 -69.31924 17670 ft 374 kts 220°
2026-04-24 23:29 11.82320 -69.33679 18169 ft 378 kts 220°
2026-04-24 23:29 11.80341 -69.35401 18602 ft 380 kts 220°
2026-04-24 23:29 11.78326 -69.37150 19077 ft 381 kts 220°
2026-04-24 23:30 11.76300 -69.38909 19490 ft 384 kts 220°
2026-04-24 23:30 11.74260 -69.40680 19944 ft 385 kts 220°
2026-04-24 23:30 11.72217 -69.42452 20420 ft 387 kts 220°
2026-04-24 23:30 11.70154 -69.44241 20835 ft 390 kts 220°
2026-04-24 23:31 11.68083 -69.46036 21281 ft 392 kts 220°
2026-04-24 23:31 11.66002 -69.47843 21727 ft 394 kts 220°
2026-04-24 23:31 11.63903 -69.49665 22117 ft 398 kts 220°
2026-04-24 23:31 11.61791 -69.51492 22570 ft 399 kts 220°
2026-04-24 23:32 11.59665 -69.53330 22983 ft 402 kts 221°
2026-04-24 23:32 11.57521 -69.55183 23321 ft 406 kts 221°
2026-04-24 23:32 11.55357 -69.57057 23663 ft 409 kts 221°
2026-04-24 23:32 11.53178 -69.58944 23979 ft 412 kts 221°
2026-04-24 23:33 11.50988 -69.60841 24314 ft 414 kts 221°
2026-04-24 23:33 11.49533 -69.62102 24533 ft 415 kts 221°
2026-04-24 23:33 11.46612 -69.64636 24961 ft 417 kts 221°
2026-04-24 23:33 11.44396 -69.66560 25283 ft 419 kts 221°
2026-04-24 23:34 11.42165 -69.68493 25598 ft 421 kts 221°
2026-04-24 23:34 11.39938 -69.70436 25906 ft 423 kts 222°
2026-04-24 23:34 11.37735 -69.72433 26210 ft 424 kts 223°
2026-04-24 23:34 11.35556 -69.74466 26508 ft 426 kts 224°
2026-04-24 23:35 11.33379 -69.76526 26805 ft 427 kts 224°
2026-04-24 23:35 11.31194 -69.78598 27101 ft 429 kts 223°
2026-04-24 23:35 11.29003 -69.80661 27433 ft 429 kts 223°
2026-04-24 23:35 11.26797 -69.82721 27727 ft 431 kts 223°
2026-04-24 23:36 11.24580 -69.84783 28028 ft 432 kts 223°
2026-04-24 23:36 11.22381 -69.86826 28300 ft 434 kts 223°
2026-04-24 23:36 11.20152 -69.88901 28594 ft 435 kts 223°
2026-04-24 23:36 11.17919 -69.90982 28877 ft 436 kts 223°
2026-04-24 23:37 11.15671 -69.93073 29153 ft 437 kts 223°
2026-04-24 23:37 11.13414 -69.95170 29412 ft 439 kts 223°
2026-04-24 23:37 11.08884 -69.99374 29907 ft 442 kts 222°
2026-04-24 23:38 11.06603 -70.01485 30119 ft 443 kts 222°
2026-04-24 23:38 11.04323 -70.03601 30319 ft 445 kts 222°
2026-04-24 23:38 11.02036 -70.05734 30524 ft 446 kts 223°
2026-04-24 23:38 10.99750 -70.07873 30701 ft 447 kts 222°
2026-04-24 23:39 10.97454 -70.10019 30857 ft 449 kts 222°
2026-04-24 23:39 10.95151 -70.12169 31074 ft 449 kts 222°
2026-04-24 23:39 10.92849 -70.14317 31332 ft 449 kts 222°
2026-04-24 23:39 10.90546 -70.16461 31587 ft 449 kts 222°
2026-04-24 23:40 10.88246 -70.18601 31833 ft 448 kts 222°
2026-04-24 23:40 10.85942 -70.20745 31939 ft 445 kts 222°
2026-04-24 23:40 10.83697 -70.22837 31950 ft 431 kts 222°
2026-04-24 23:40 10.81501 -70.24884 31950 ft 425 kts 222°
2026-04-24 23:41 10.77155 -70.28935 31963 ft 423 kts 222°
2026-04-24 23:41 10.72849 -70.32948 31965 ft 422 kts 222°
2026-04-24 23:42 10.68517 -70.36985 31963 ft 422 kts 222°
2026-04-24 23:42 10.64197 -70.41028 31964 ft 422 kts 222°
2026-04-24 23:43 10.59853 -70.45065 31953 ft 423 kts 221°
2026-04-24 23:43 10.55494 -70.49096 31951 ft 423 kts 221°
2026-04-24 23:44 10.51143 -70.53122 31951 ft 423 kts 221°
2026-04-24 23:44 10.46793 -70.57154 31956 ft 423 kts 221°
2026-04-24 23:45 10.43185 -70.60501 31958 ft 422 kts 221°
2026-04-24 23:45 10.38116 -70.65196 31955 ft 421 kts 221°
2026-04-24 23:46 10.34518 -70.68528 31954 ft 421 kts 221°
2026-04-24 23:46 10.30184 -70.72534 31951 ft 421 kts 221°
2026-04-24 23:47 10.25857 -70.76533 31942 ft 421 kts 221°
2026-04-24 23:47 10.21525 -70.80527 31941 ft 421 kts 221°
2026-04-24 23:48 10.17189 -70.84530 31941 ft 421 kts 221°
2026-04-24 23:48 10.12860 -70.88528 31929 ft 421 kts 221°
2026-04-24 23:49 10.08565 -70.92503 31932 ft 420 kts 221°
2026-04-24 23:49 10.04242 -70.96492 31934 ft 420 kts 221°
2026-04-24 23:50 9.99916 -71.00481 31919 ft 420 kts 221°
2026-04-24 23:50 9.95591 -71.04474 31909 ft 420 kts 221°
2026-04-24 23:51 9.91256 -71.08466 31907 ft 421 kts 221°
2026-04-24 23:51 9.86915 -71.12466 31907 ft 421 kts 221°
2026-04-24 23:52 9.82579 -71.16461 31910 ft 421 kts 221°
2026-04-24 23:52 9.78238 -71.20461 31912 ft 422 kts 221°
2026-04-24 23:53 9.73897 -71.24461 31910 ft 422 kts 221°
2026-04-24 23:53 9.69590 -71.28434 31912 ft 422 kts 221°
2026-04-24 23:54 9.65244 -71.32434 31909 ft 422 kts 221°
2026-04-24 23:54 9.60892 -71.36429 31904 ft 422 kts 221°
2026-04-24 23:55 9.56532 -71.40429 31905 ft 422 kts 221°
2026-04-24 23:55 9.52204 -71.44406 31906 ft 423 kts 221°
2026-04-24 23:56 9.47850 -71.48411 31908 ft 423 kts 221°
2026-04-24 23:56 9.43491 -71.52415 31910 ft 423 kts 221°
2026-04-24 23:57 9.39131 -71.56417 31916 ft 423 kts 221°
2026-04-24 23:57 9.34770 -71.60415 31919 ft 422 kts 221°
2026-04-24 23:58 9.30417 -71.64405 31913 ft 422 kts 221°
2026-04-24 23:58 9.26056 -71.68405 31913 ft 423 kts 221°
2026-04-24 23:59 9.21691 -71.72410 31916 ft 424 kts 221°
2026-04-24 23:59 9.17322 -71.76412 31917 ft 424 kts 221°
2026-04-25 00:00 9.12954 -71.80411 31919 ft 424 kts 221°
2026-04-25 00:00 9.08610 -71.84385 31918 ft 423 kts 221°
2026-04-25 00:01 9.04242 -71.88385 31920 ft 423 kts 221°
2026-04-25 00:01 8.99872 -71.92379 31920 ft 423 kts 221°
2026-04-25 00:02 8.95046 -71.95734 31921 ft 422 kts 208°
2026-04-25 00:02 8.89913 -71.98616 31920 ft 421 kts 208°
2026-04-25 00:03 8.84812 -72.01471 31916 ft 421 kts 208°
2026-04-25 00:03 8.79680 -72.04342 31915 ft 421 kts 208°
2026-04-25 00:04 8.74552 -72.07220 31920 ft 421 kts 208°
2026-04-25 00:04 8.69428 -72.10097 31920 ft 421 kts 208°
2026-04-25 00:05 8.64306 -72.12977 31923 ft 421 kts 208°
2026-04-25 00:05 8.59176 -72.15850 31923 ft 422 kts 208°
2026-04-25 00:06 8.54061 -72.18700 31925 ft 422 kts 208°
2026-04-25 00:06 8.48919 -72.21580 31943 ft 422 kts 208°
2026-04-25 00:07 8.43795 -72.24459 31941 ft 422 kts 208°
2026-04-25 00:07 8.38666 -72.27329 31927 ft 422 kts 208°
2026-04-25 00:08 8.33561 -72.30185 31942 ft 422 kts 208°
2026-04-25 00:08 8.28425 -72.33059 31941 ft 422 kts 208°
2026-04-25 00:09 8.23283 -72.35928 31965 ft 422 kts 208°
2026-04-25 00:09 8.18142 -72.38798 31966 ft 422 kts 208°
2026-04-25 00:10 8.13007 -72.41667 31956 ft 422 kts 208°
2026-04-25 00:10 8.07871 -72.44539 31963 ft 422 kts 208°
2026-04-25 00:11 8.02739 -72.47406 31961 ft 422 kts 208°
2026-04-25 00:11 7.97605 -72.50274 31961 ft 422 kts 208°
2026-04-25 00:12 7.92494 -72.53126 31957 ft 422 kts 207°
2026-04-25 00:12 7.87360 -72.55997 31960 ft 422 kts 207°
2026-04-25 00:13 7.82218 -72.58869 31971 ft 422 kts 207°
2026-04-25 00:13 7.77066 -72.61732 31985 ft 423 kts 207°
2026-04-25 00:14 7.71911 -72.64597 32022 ft 423 kts 207°
2026-04-25 00:14 7.66794 -72.67456 32070 ft 423 kts 207°
2026-04-25 00:15 7.61646 -72.70332 32067 ft 423 kts 207°
2026-04-25 00:15 7.56490 -72.73204 32056 ft 423 kts 207°
2026-04-25 00:16 7.51313 -72.76084 32079 ft 424 kts 207°
2026-04-25 00:16 7.46146 -72.78969 32084 ft 425 kts 207°
2026-04-25 00:17 7.41003 -72.81828 32082 ft 425 kts 207°
2026-04-25 00:17 7.35825 -72.84702 32095 ft 424 kts 207°
2026-04-25 00:18 7.30655 -72.87579 32092 ft 424 kts 207°
2026-04-25 00:18 7.25492 -72.90450 32098 ft 424 kts 207°
2026-04-25 00:19 7.20330 -72.93321 32098 ft 424 kts 207°
2026-04-25 00:19 7.15163 -72.96189 32069 ft 424 kts 207°
2026-04-25 00:20 7.09996 -72.99060 32065 ft 425 kts 207°
2026-04-25 00:20 7.04852 -73.01924 32066 ft 425 kts 207°
2026-04-25 00:21 6.99676 -73.04800 32063 ft 425 kts 207°
2026-04-25 00:21 6.94502 -73.07666 32064 ft 425 kts 207°
2026-04-25 00:22 6.89322 -73.10540 32027 ft 425 kts 207°
2026-04-25 00:22 6.84148 -73.13418 32029 ft 424 kts 207°
2026-04-25 00:23 6.78968 -73.16296 32045 ft 424 kts 207°
2026-04-25 00:23 6.73833 -73.19149 32044 ft 424 kts 207°
2026-04-25 00:24 6.68659 -73.22015 32059 ft 424 kts 207°
2026-04-25 00:24 6.63481 -73.24887 32051 ft 425 kts 207°
2026-04-25 00:25 6.58301 -73.27753 32053 ft 424 kts 207°
2026-04-25 00:25 6.53159 -73.30598 32076 ft 424 kts 206°
2026-04-25 00:26 6.47990 -73.33466 32076 ft 424 kts 206°
2026-04-25 00:26 6.42812 -73.36337 32075 ft 424 kts 206°
2026-04-25 00:27 6.37634 -73.39200 32084 ft 424 kts 206°
2026-04-25 00:27 6.32464 -73.42061 32081 ft 424 kts 206°
2026-04-25 00:28 6.27334 -73.44907 32085 ft 424 kts 206°
2026-04-25 00:28 6.22161 -73.47775 32114 ft 424 kts 206°
2026-04-25 00:29 6.16996 -73.50631 32110 ft 424 kts 206°
2026-04-25 00:29 6.11821 -73.53492 32136 ft 424 kts 206°
2026-04-25 00:30 6.06653 -73.56350 32137 ft 424 kts 206°
2026-04-25 00:30 6.01479 -73.59210 32138 ft 424 kts 206°
2026-04-25 00:31 5.96341 -73.62050 32177 ft 424 kts 206°
2026-04-25 00:31 5.91170 -73.64904 32177 ft 424 kts 206°
2026-04-25 00:32 5.85997 -73.67763 32157 ft 424 kts 206°
2026-04-25 00:32 5.81660 -73.70158 32185 ft 425 kts 206°
2026-04-25 00:33 5.75626 -73.73486 32186 ft 426 kts 206°
2026-04-25 00:33 5.70468 -73.76336 31855 ft 416 kts 206°
2026-04-25 00:34 5.67951 -73.77729 31645 ft 411 kts 206°
2026-04-25 00:34 5.65456 -73.79109 31413 ft 409 kts 206°
2026-04-25 00:34 5.62969 -73.80485 31166 ft 407 kts 206°
2026-04-25 00:34 5.60502 -73.81848 30775 ft 403 kts 206°
2026-04-25 00:35 5.58055 -73.83199 30313 ft 401 kts 207°
2026-04-25 00:35 5.55705 -73.84651 29832 ft 400 kts 216°
2026-04-25 00:35 5.53648 -73.86526 29391 ft 399 kts 227°
2026-04-25 00:35 5.51995 -73.88756 28944 ft 398 kts 238°
2026-04-25 00:36 5.50767 -73.91238 28500 ft 396 kts 244°
2026-04-25 00:36 5.49632 -73.93751 28044 ft 393 kts 244°
2026-04-25 00:36 5.48504 -73.96237 27615 ft 391 kts 244°
2026-04-25 00:36 5.47377 -73.98713 27172 ft 388 kts 244°
2026-04-25 00:37 5.46261 -74.01167 26737 ft 386 kts 244°
2026-04-25 00:37 5.45148 -74.03610 26298 ft 384 kts 245°
2026-04-25 00:37 5.44040 -74.06041 25863 ft 382 kts 245°
2026-04-25 00:37 5.42941 -74.08458 25389 ft 380 kts 245°
2026-04-25 00:38 5.42213 -74.10060 25086 ft 380 kts 245°
2026-04-25 00:38 5.41118 -74.12467 24667 ft 379 kts 245°
2026-04-25 00:38 5.40021 -74.14872 24191 ft 378 kts 246°
2026-04-25 00:38 5.38926 -74.17275 23704 ft 378 kts 246°
2026-04-25 00:39 5.37833 -74.19675 23181 ft 377 kts 246°
2026-04-25 00:39 5.36746 -74.22061 22691 ft 375 kts 246°
2026-04-25 00:39 5.35667 -74.24436 22225 ft 373 kts 246°
2026-04-25 00:39 5.34587 -74.26809 21757 ft 372 kts 246°
2026-04-25 00:40 5.33515 -74.29161 21302 ft 370 kts 246°
2026-04-25 00:40 5.32447 -74.31500 20841 ft 368 kts 246°
2026-04-25 00:40 5.31369 -74.33829 20389 ft 367 kts 243°
2026-04-25 00:40 5.29849 -74.35877 19910 ft 368 kts 223°
2026-04-25 00:41 5.27740 -74.37262 19755 ft 360 kts 204°
2026-04-25 00:41 5.25350 -74.37872 19560 ft 354 kts 185°
2026-04-25 00:41 5.22935 -74.37732 19247 ft 351 kts 173°
2026-04-25 00:41 5.20513 -74.37396 18879 ft 350 kts 173°
2026-04-25 00:42 5.18114 -74.37049 18486 ft 345 kts 173°
2026-04-25 00:42 5.15743 -74.36706 17778 ft 343 kts 173°
2026-04-25 00:42 5.13393 -74.36369 17119 ft 339 kts 173°
2026-04-25 00:42 5.11068 -74.36037 16474 ft 336 kts 174°
2026-04-25 00:43 5.08761 -74.35711 15907 ft 334 kts 173°
2026-04-25 00:43 5.06476 -74.35391 15467 ft 329 kts 173°
2026-04-25 00:43 5.04220 -74.35076 15010 ft 325 kts 173°
2026-04-25 00:43 5.01991 -74.34764 14620 ft 323 kts 173°
2026-04-25 00:44 4.99771 -74.34453 14388 ft 318 kts 173°
2026-04-25 00:44 4.97605 -74.34151 14286 ft 309 kts 173°
2026-04-25 00:44 4.95502 -74.33857 14167 ft 300 kts 173°
2026-04-25 00:44 4.93479 -74.33574 13747 ft 296 kts 173°
2026-04-25 00:45 4.91443 -74.33289 13284 ft 296 kts 173°
2026-04-25 00:45 4.89386 -74.33002 12615 ft 301 kts 173°
2026-04-25 00:45 4.87309 -74.32709 12134 ft 297 kts 172°
2026-04-25 00:45 4.85341 -74.32334 11996 ft 279 kts 160°
2026-04-25 00:46 4.83683 -74.31468 11976 ft 261 kts 142°
2026-04-25 00:46 4.82325 -74.30317 11982 ft 250 kts 139°
2026-04-25 00:46 4.79761 -74.28120 11453 ft 232 kts 138°
2026-04-25 00:47 4.78673 -74.26973 11047 ft 223 kts 128°
2026-04-25 00:47 4.77736 -74.25761 10587 ft 214 kts 126°
2026-04-25 00:47 4.76867 -74.24606 10300 ft 200 kts 126°
2026-04-25 00:47 4.76051 -74.23525 10049 ft 189 kts 127°
2026-04-25 00:48 4.75280 -74.22505 9804 ft 179 kts 127°
2026-04-25 00:48 4.74536 -74.21522 9556 ft 175 kts 127°
2026-04-25 00:48 4.73816 -74.20571 9320 ft 172 kts 127°
2026-04-25 00:48 4.73091 -74.19613 9076 ft 173 kts 128°
2026-04-25 00:49 4.72368 -74.18658 8821 ft 171 kts 128°
2026-04-25 00:49 4.71651 -74.17707 8564 ft 170 kts 128°
2026-04-25 00:49 4.70937 -74.16759 8392 ft 170 kts 128°
2026-04-25 00:49 4.70285 -74.15901 8371 ft 130 kts 127°
2026-04-25 00:50 4.69839 -74.15312 8373 ft 81 kts 127°
2026-04-25 00:50 4.69558 -74.14941 8370 ft 60 kts 127°
2026-04-25 00:50 4.69381 -74.14705 8369 ft 18 kts 127°
2026-04-25 00:50 4.69358 -74.14629 8369 ft 11 kts 61°
2026-04-25 00:51 4.69413 -74.14585 8370 ft 9 kts 35°
2026-04-25 00:51 4.69456 -74.14554 8370 ft 6 kts 35°
2026-04-25 00:51 4.69465 -74.14548 8370 ft 0 kts 36°
2026-04-25 00:53 4.69478 -74.14538 8370 ft 5 kts 34°
2026-04-25 00:53 4.69520 -74.14534 8370 ft 8 kts 330°
2026-04-25 00:54 4.69563 -74.14587 8370 ft 12 kts 307°
2026-04-25 00:54 4.69619 -74.14662 8370 ft 15 kts 307°
2026-04-25 00:54 4.69689 -74.14754 8370 ft 14 kts 307°
2026-04-25 00:54 4.69735 -74.14808 8370 ft 11 kts 330°
2026-04-25 00:55 4.69809 -74.14776 8370 ft 14 kts 36°
2026-04-25 00:55 4.69876 -74.14726 8370 ft 11 kts 37°
2026-04-25 00:55 4.69947 -74.14673 8370 ft 14 kts 37°
2026-04-25 00:55 4.70005 -74.14630 8370 ft 8 kts 36°
2026-04-25 00:56 4.70053 -74.14595 8370 ft 9 kts 36°
2026-04-25 00:56 4.70038 -74.14534 8370 ft 11 kts 128°
2026-04-25 00:56 4.70002 -74.14488 8370 ft 7 kts 127°
2026-04-25 00:56 4.69974 -74.14450 8370 ft 6 kts 127°
2026-04-25 00:57 4.69951 -74.14420 8370 ft 6 kts 127°
2026-04-25 00:57 4.69928 -74.14391 8370 ft 5 kts 127°
2026-04-25 00:57 4.69895 -74.14392 8370 ft 3 kts 220°
2026-04-25 00:57 4.69875 -74.14414 8370 ft 4 kts 229°
2026-04-25 00:58 4.69867 -74.14423 8370 ft 0 kts 228°
2026-04-25 00:58 4.69864 -74.14426 8370 ft 0 kts 229°